Location: DARK SKY Beskydy - Park tmavé oblohy, www.darkskybeskydy.cz
(49.4926°N, 18.5016°E)
Time: 11:29:49
(UTC+02:00)

Vanguard 1 - Pass Details

Date: 28 February 2024
Orbit: 653 x 3825 km, 34.2° (Epoch: 12 April)

Event Time Altitude Azimuth Distance (km) Brightness Sun altitude
Rises 21:27:55 0° 258° (WSW) 5,821 14.4 -37.9°
Reaches altitude 10° 21:31:19 10° 253° (WSW) 5,172 14.0 -38.3°
Maximum altitude 21:46:56 49° 185° (S) 4,061 12.7 -40.1°
Enters shadow 21:47:10 49° 184° (S) 4,072 12.7 -40.2°
Drops below altitude 10° 22:08:27 10° 120° (ESE) 6,905 - -42.5°
Sets 22:13:57 0° 116° (ESE) 7,824 - -43.0°
